Location: McFarlands Corners
(41.4117°N, 81.3382°W)
Time: 01:58:31
(UTC+00:00)

Tiros 1 - Pass Details

Date: 16 February 2026
Orbit: 618 x 649 km, 48.4° (Epoch: 13 March)

Event Time Altitude Azimuth Distance (km) Brightness Sun altitude
Rises 20:57:24 0° 294° (WNW) 2,888 10.9 19.7°
Reaches altitude 10° 20:59:50 10° 285° (WNW) 1,979 10.3 19.4°
Maximum altitude 21:03:58 35° 220° (SW) 997 9.8 18.8°
Drops below altitude 10° 21:08:06 10° 155° (SSE) 1,975 9.8 18.1°
Sets 21:10:32 0° 146° (SE) 2,880 10.5 17.8°
